Flag for U.S.A. Weather past 2 weeks in Shiprock, New Mexico, U.S.A.

58 °F

Thunderstorms. Mostly cloudy.

Feels Like: 56 °F
Forecast: 50 / 67 °F
Wind: 9 mph from Northwest

Location: Four Corners Regional Airport

Current Time: Oct 6, 2015 at 5:23:31 PM

Latest Report: Oct 6, 2015 at 4:53 PM

Visibility: 10 mi

Pressure: 30.11 "Hg (25.22 "Hg at 1492m altitude)

Humidity: 75%

Dew point: 50 °F

Location of ShiprockLocation

Historic Weather in Shiprock — Graph


Shiprock temperature yesterday

Maximum temperature yesterday: 74 °F (at 2:53 PM)
Minimum temperature yesterday: 53 °F (at 7:53 PM)
Average temperature yesterday: 59 °F

Past Weeks' High & Low Weather Summary

High88 °F (Sep 30, 3:53 PM)97% (Sep 23, 4:53 AM)30.26 "Hg (Sep 23, 4:53 AM)
Low41 °F (Oct 3, 6:53 AM)10% (Sep 21, 3:53 PM)29.60 "Hg (Oct 3, 2:53 PM)
Average66 °F45%29.97 "Hg
* Reported Sep 21 3:53 PM — Oct 6 3:53 PM, Shiprock, Weather by CustomWeather, © 2015

Note: Actual official high and low records may vary slightly from our data, if they occured in-between our weather recording intervals... More about our weather records


Shiprock weather history for previous 24 hours

Time TempWeatherWind HumidityBarometerVisibility
3:53 PM
Tue, Oct 6
61 °FThunderstorms. Mostly cloudy.24 mph58%30.09 "Hg7 mi
2:53 PM66 °FPartly sunny.5 mph43%30.07 "Hg10 mi
1:53 PM68 °FSunny.8 mph45%30.10 "Hg10 mi
12:53 PM65 °FSunny.8 mph56%30.13 "Hg10 mi
11:53 AM61 °FLight rain. Partly sunny.5 mph70%30.17 "Hg10 mi
10:53 AM58 °FPassing clouds.5 mph75%30.19 "Hg10 mi
9:53 AM56 °FPassing clouds.No wind75%30.19 "Hg10 mi
8:53 AM53 °FSunny.6 mph80%30.19 "Hg10 mi
7:53 AM49 °FPassing clouds.5 mph90%30.20 "Hg10 mi
6:53 AM47 °FClear.6 mph90%30.18 "Hg10 mi
5:53 AM48 °FClear.6 mph93%30.16 "Hg10 mi
4:53 AM50 °FClear.7 mph89%30.14 "Hg10 mi
3:53 AM50 °FClear.6 mph93%30.14 "Hg10 mi
2:53 AM52 °FClear.7 mph97%30.10 "Hg10 mi
1:53 AM52 °FPassing clouds.5 mph97%30.11 "Hg10 mi
12:53 AM53 °FPassing clouds.6 mph93%30.10 "Hg10 mi
11:53 PM
Mon, Oct 5
53 °FLight rain. Mostly cloudy.5 mph93%30.12 "Hg10 mi
10:53 PM53 °FLight rain. Mostly cloudy.10 mph93%30.10 "Hg10 mi
9:53 PM53 °FLight rain. Overcast.3 mph96%30.11 "Hg10 mi
8:53 PM53 °FMostly cloudy.6 mph93%30.10 "Hg10 mi
7:53 PM53 °FThundershowers. Mostly cloudy.12 mph89%30.06 "Hg8 mi
6:53 PM55 °FPartly sunny.5 mph83%30.04 "Hg10 mi
5:53 PM56 °FThundershowers. Cloudy.14 mph81%30.01 "Hg6 mi
Weather by CustomWeather, © 2015

See weather overviewHow to use our weather pages